{"data":{"norad_id":69700,"intl_designator":"2026-145Z","name":"STARLINK-37955","alt_names":[],"object_type":"PAYLOAD","status":"ACTIVE","operator":null,"country":"US","launch_date":"2026-06-25","launch_site_code":"AFWTR","launch_vehicle":null,"mission":null,"orbit_class":"UNKNOWN","rcs_meters":null,"size_class":null,"mass_kg":null,"dimensions":null,"purposes":["comms"],"wikipedia_slug":null,"has_3d_model":false,"image_url":null,"decayed_at":null,"tle_current":{"epoch":"2026-09-19T19:35:01.625856Z","epoch_age_seconds":80768,"freshness":"FRESH","line1":"1 69700U 26145Z   26262.81599104  .00011296  00000+0  35155-3 0  9995","line2":"2 69700  97.2869 109.5743 0002855  91.6989 268.4581 15.33454744 13442","mean_motion":15.33454744,"eccentricity":0.0002855,"inclination_deg":97.2869,"raan_deg":109.5743,"arg_perigee_deg":91.6989,"mean_anomaly_deg":268.4581,"bstar":0.00035155,"rev_number":1344,"period_min":93.905607950566,"perigee_km":463.56032093029,"apogee_km":467.46804575598,"semimajor_km":6843.6511833431,"source":"CELESTRAK","updated_at":"2026-09-20T09:00:44.256951Z"}}}